Location: Artiguedieu
(43.5000°N, 0.5454°E)
Time: 11:39:20
(UTC+00:00)

GENESIS II - Pass Details

Date: 06 December 2020
Orbit: 493 x 532 km, 64.5° (Epoch: 27 January)

Event Time Altitude Azimuth Distance (km) Brightness Sun altitude
Rises 06:09:06 0° 217° (SW) 2,660 7.6 -11.8°
Reaches altitude 10° 06:11:16 10° 218° (SW) 1,777 6.7 -11.5°
Maximum altitude 06:15:16 78° 305° (NW) 551 4.2 -10.8°
Drops below altitude 10° 06:19:17 10° 32° (NNE) 1,791 7.1 -10.1°
Sets 06:21:29 0° 34° (NE) 2,683 8.0 -9.7°
